Weather in Listvenichny

Russia / Khanty-Mansi Autonomous Okrug — Yugra     59°38′45″N   65°42′39″E
temp.,
°C
wind,
m/s
gust,
m/s
humid.,
%
clouds,
%
prec.,
mm/h
press.,
hPa
HPBL,
m
10 may, mon
mon1023:00+15ese4125787 0.0 1023363
02:00+12ese3106760 0.0 1024249
05:00+10ese26736 0.0 1026143
08:00+15se35465 0.0 1027465
11:00+19ese343576 0.0 10271128
14:00+21ese343125 0.0 10271733
17:00+21ese33305 0.0 10261730
20:00+17se234420 0.0 102646
11 may, tue
tue1123:00+13sse23525 0.0 102743
02:00+11s235817 0.0 102745
05:00+10ssw24625 0.0 102767
08:00+16sw3544100 0.0 1026335
11:00+20sw4529100 0.0 10261133
14:00+21w4631100 0.0 10251536
17:00+18wnw3649100 0.0 1025226
20:00+16nnw3773100 0.0 1026503
12 may, wed
wed1223:00+12n2876100 0.0 1026238
02:00+9nne1183100 0.0 102722
05:00+10nw2276100 0.0 102873
08:00+13wnw2564100 0.0 1028375
11:00+14wnw3747100 0.0 1027602
14:00+12w3869100 0.0 1026499
17:00+17nw4850100 0.0 10251063
20:00+15nw2673100 0.1 1025188
13 may, thu
thu1323:00+13w2286100 0.2 102522
02:00+13w3981100 0.0 1024231
05:00+12wnw2687100 0.0 1024122
08:00+18wnw376397 0.0 1024439
11:00+22nw69465 0.0 10231660
14:00+24nnw693855 0.0 10232372
17:00+23nnw583631 0.0 10232479
20:00+18ne23573 0.0 102560
14 may, fri
fri1423:00+14ese24670 0.0 102571
02:00+12sse24750 0.0 102575
05:00+12ssw268042 0.0 1024116
08:00+16sw3106725 0.0 1022351
11:00+24w5841100 0.0 10201439
14:00+24w594181 0.0 10181329
17:00+24wnw6113898 0.0 10171528
20:00+22w4114589 0.0 1016522